Regional Weather Roundup
Issued by NWS

Home | Current Version | Previous Version | Text Only | Print | Product List | Glossary On
Versions: 1 2 3 4 5 6 7 8 9 10 11 12 13 14 15 16 17 18 19 20 21 22 23 24 25 26 27 28 29 30 31 32 33 34 35 36 37 38 39 40 41 42 43 44 45 46 47 48 49 50
891
ASUS43 KLMK 080810
RWRKY
KENTUCKY REGIONAL WEATHER ROUNDUP
NATIONAL WEATHER SERVICE LOUISVILLE KY
300 AM EST MON FEB 08 2016

NOTE "FAIR" INDICATES FEW OR NO CLOUDS BELOW 12,000 FEET
WITH NO SIGNIFICANT WEATHER AND/OR OBSTRUCTIONS TO VISIBILITY.

KYZ001>023-026-027-061>063-070>075-080900-
WESTERN AND SOUTH CENTRAL KENTUCKY

CITY           SKY/WX    TMP DP  RH WIND       PRES   REMARKS
PADUCAH        CLEAR     40  27  59 W10       29.82F WCI  33
HENDERSON      PTCLDY    36  30  80 CALM      29.79F
OWENSBORO      CLOUDY    38  37  96 CALM      29.80F
HOPKINSVILLE   CLOUDY    43  31  63 SW3       29.82F
BOWLING GREEN  CLOUDY    45  35  68 NW8       29.82R
GLASGOW        LGT RAIN  43  35  73 W10G17    29.79S
$$

KYZ024-025-028>034-038-045-046-053-080900-
NORTH CENTRAL KENTUCKY

CITY           SKY/WX    TMP DP  RH WIND       PRES   REMARKS
LOUISVILLE/SDF LGT RAIN  42  34  73 W15       29.76S
LOUISVILLE/LOU LGT RAIN  43  33  68 W12       29.76F
FORT KNOX      LGT RAIN  39  36  87 W12       29.75F WCI  32
$$

KYZ035>037-039>044-047>052-055>060-089>105-080900-
NORTHEAST KENTUCKY

CITY           SKY/WX    TMP DP  RH WIND       PRES   REMARKS
LEXINGTON      CLOUDY    42  25  50 SW9       29.72F
COVINGTON      LGT RAIN  41  34  76 NW12      29.71F
FRANKFORT      CLOUDY    43  30  60 W10G20    29.73S
$$

KYZ054-064>069-076>088-106>120-080900-
SOUTHEAST KENTUCKY

CITY           SKY/WX    TMP DP  RH WIND       PRES   REMARKS
JACKSON        CLOUDY    40  21  46 SW6       29.75F
LONDON         CLOUDY    43  20  39 SW8       29.77F
SOMERSET       CLOUDY    39  23  52 S5        29.78F
MIDDLESBORO    CLEAR     29  26  91 CALM      29.82F
MONTICELLO     CLOUDY    45  25  45 SW16      29.79F
$$





USA.gov is the U.S. government's official web portal to all federal, state and local government web resources and services.